VTUOVTUQ

Guest
Details From VTUO - Burirum
To VTUQ - Nakhon Ratchasima
Flight Number -
Tags decoded
Created
Modified
Stats Distance 59 nm / 110 km
Max Altitude 0 ft / 0 m
Waypoints 3
Social Downloads 0
Likes 0
Share VATSIM

Download

Looking for another format? Having issues loading an existing format? Contact us
Advertisement - Login to hide

Notes

Requested: VTUO W38 RAMEI VTUQ

Route

VTUO RAMEI VTUQ

ID Type Via Altitude Latitude Longitude Leg Dist Tot Dist Heading (true) Name
O VTUO APT - 0 ft / 0 m 15.22954˚ 103.25323˚ - 0 nm - Burirum
RAMEI FIX - 0 ft / 0 m 15.01766˚ 102.99464˚ 19 nm 19 nm 230° / 230° -
O VTUQ APT - 0 ft / 0 m 14.94950˚ 102.31274˚ 39 nm 59 nm 264° / 264° Nakhon Ratchasima

Altitude Profile

Advertisement - Login to hide

VTUO

Details ICAO VTUO (BFV)
Name Burirum
Region Thailand
Timezone Asia/Bangkok (UTC+7.0)
Stats Elevation 590 ft / 180 m (AMSL)
Location 15.229537° 103.253231°
Runways 1
Magnetic Variation 0.743° W

METAR

VTUO 231000Z 17003KT 140V200 9000 FEW020 31/25 Q1007 NOSIG

Decode

TAF

TAF VTUO 230500Z 2306/2406 16004KT 9000 SCT025 BECMG 2320/2322 4000 BR BECMG 2400/2402 8000 NSW

Decode

Departure Runways

ID Width Length Bearing (true) Bearing (mag) Surface Threshold Offset Overrun Length
04 148 ft / 45 m 6,930 ft / 2,112 m 34.94° 35.68° Asphalt 0 ft / 0 m 1,726 ft / 526 m
22 148 ft / 45 m 6,930 ft / 2,112 m 214.94° 215.68° Asphalt 0 ft / 0 m 1,704 ft / 519 m

VTUQ

Details ICAO VTUQ (NAK)
Name Nakhon Ratchasima
Region Thailand
Timezone Asia/Bangkok (UTC+7.0)
Stats Elevation 765 ft / 233 m (AMSL)
Location 14.949496° 102.312737°
Runways 1
Magnetic Variation 0.682° W

METAR

VTUQ 231000Z VRB02KT 8000 SCT030 27/27 Q1007 NOSIG

Decode

TAF

TAF VTUQ 230500Z 2306/2406 26004KT 8000 SCT030 TEMPO 2309/2312 VRB10KT 6000 -TSRA FEW018CB BKN020 BKN100 BECMG 2320/2322 5000 BR BECMG 2400/2402 8000 NSW

Decode

Destination Runways

ID Width Length Bearing (true) Bearing (mag) Surface Threshold Offset Overrun Length
06 148 ft / 45 m 6,896 ft / 2,102 m 61.18° 61.86° Asphalt 0 ft / 0 m 197 ft / 60 m
24 148 ft / 45 m 6,896 ft / 2,102 m 241.19° 241.87° Asphalt 0 ft / 0 m 197 ft / 60 m

Approach Navaids

Runway Type Ident Frequency Range Bearing (true) Bearing (mag) Slope Elevation
06 Localiser INKR 109.70 MHz 18 nm / 33 km 61.19° 61.87° - 732 ft / 223 m (AMSL)
06 Glidescope INKR 109.70 MHz 10 nm / 19 km 61.19° 61.87° 3.00° 765 ft / 233 m (AMSL)
06 DME INKR 109.70 MHz 18 nm / 33 km - - - 732 ft / 223 m (AMSL)

Popular Alternatives